User: anonymous   Login
Location: Unspecified
(0.0000°N, 0.0000°E)
Time: 14:10:46
(UTC+01:00)
Language:

OPAL - Orbit

View from above orbital plane
View from above orbital plane
View from above satellite
View from above satellite

Ground track
Ground track

The orbit data is extracted from the following two-line orbital elements,

1 26063U 00004C   18051.70561101 -.00000022  00000-0  12747-4 0  9997
2 26063 100.2059 106.3959 0036059 329.0991  30.8068 14.36689829947062
Epoch (UTC): 20 February 2018 16:56:04
Eccentricity: 0.0036059
inclination: 100.2059°
perigee height: 743 km
apogee height: 795 km
right ascension of ascending node: 106.3959°
argument of perigee: 329.0991°
revolutions per day: 14.36689829
mean anomaly at epoch: 30.8068°
orbit number at epoch: 94706

The dashed part of the orbit path shows where the satellite is in the earth's shadow,  

DLR